Temperature
23 24 25 25 25 25 24 22 22 22 22 21 21 21 21 21 21 21 21 20 20 20 20 20 20 20 20 20 19 19 19 19 18 18 18 17 17 17 17 17 17 17 17 17
23 25 25 24 25 25 24 23 22 22 21 21 21 21 20 20 20 20 20 20 20 20 20 20 20 20 20 19 19 19 19 18 18 18 18 17 17 17 17 17 16 16 16 16
21 23 23 22 23 24 23 23 22 21 21 20 20 20 20 20 20 20 20 20 20 20 20 20 20 20 20 19 19 18 18 18 18 17 17 17 17 17 17 16 16 16 16 16
19 21 22 22 22 23 23 22 21 21 20 20 20 20 20 20 20 20 20 20 20 20 20 20 20 19 19 19 19 18 18 18 17 17 17 17 17 16 16 16 16 16 16 16
18 20 21 22 23 23 22 21 21 20 20 20 20 19 19 20 20 19 20 20 20 19 19 19 19 19 19 19 18 18 18 17 17 17 17 16 16 16 16 16 16 16 16 15
18 20 21 21 22 23 22 20 20 20 19 19 19 18 18 19 19 19 19 19 19 19 19 19 19 18 18 18 18 18 17 17 17 17 16 16 16 16 16 16 15 15 15 15
18 19 20 21 22 23 21 20 20 20 20 19 18 18 19 19 19 19 19 19 19 19 19 18 18 18 18 18 17 17 17 17 17 16 16 16 16 16 15 15 15 15 15 15
17 19 19 20 21 20 19 20 20 20 20 19 19 19 18 18 18 19 19 18 18 18 18 18 18 18 18 17 17 17 17 16 16 16 16 16 15 15 15 15 15 15 15 14
17 18 19 20 19 20 20 19 19 19 19 19 19 18 18 18 18 18 18 18 18 18 17 17 17 17 17 17 17 16 16 16 16 15 15 15 15 15 15 15 14 14 14 14
17 17 18 19 19 20 20 20 20 20 19 19 18 18 18 18 17 17 17 17 17 17 17 16 16 17 16 16 16 16 16 16 15 15 15 15 15 15 15 14 14 14 14 14
16 17 18 18 19 19 19 19 19 19 19 19 19 18 18 17 17 17 17 17 17 16 16 16 16 16 16 16 16 16 16 15 15 15 15 15 15 14 14 14 14 14 14 13
16 16 16 17 19 19 19 19 19 19 19 19 18 18 18 17 17 17 17 16 16 16 16 16 15 15 15 15 15 15 15 15 14 14 14 14 14 14 14 14 13 13 13 13
18 18 18 18 18 18 18 18 18 18 18 18 18 18 17 17 17 16 16 16 16 16 15 15 15 15 15 15 15 15 14 14 14 14 14 14 14 13 13 13 13 13 13 13
18 18 18 18 18 18 18 18 18 17 17 17 17 17 17 16 16 16 16 16 16 15 15 15 15 15 14 14 14 14 14 14 14 14 14 14 13 13 13 13 13 12 12 12
18 18 18 18 18 17 17 17 17 17 16 16 16 16 16 16 16 15 15 15 15 15 15 14 14 14 14 14 14 14 14 14 14 13 13 13 13 13 13 13 12 12 12 12
17 18 17 17 17 17 17 17 16 16 16 16 16 16 15 15 15 15 15 15 15 14 14 14 14 14 14 14 14 13 13 13 13 13 13 13 13 12 12 12 12 12 12 12
17 16 17 16 16 16 16 17 16 16 16 15 15 15 15 15 15 14 14 14 14 14 14 14 13 13 13 13 13 13 13 13 13 13 12 12 12 12 12 12 12 12 11 11
17 17 17 17 16 16 16 16 16 15 15 15 15 15 15 14 14 14 14 14 13 13 13 13 13 13 13 13 13 13 12 12 12 12 12 12 12 12 12 12 11 11 11 11
17 17 16 16 16 16 16 15 15 15 15 15 15 15 14 14 14 14 13 13 13 13 13 13 13 13 13 12 12 12 12 12 12 12 12 12 12 12 11 11 11 11 11 11
17 16 16 16 16 16 15 15 15 15 15 15 14 14 14 13 13 13 13 13 13 13 13 13 13 13 12 12 12 12 12 12 12 12 12 11 11 11 11 11 11 11 11 10
16 16 16 15 15 15 15 15 15 14 14 14 14 14 13 13 13 13 13 13 13 13 13 13 12 12 12 12 12 12 12 12 12 12 11 11 11 11 11 11 11 10 10 10
16 16 15 15 15 15 15 15 14 14 14 14 13 13 13 13 13 13 13 13 13 12 12 12 12 12 12 12 12 12 12 12 12 11 11 11 11 11 11 10 10 10 10 10
15 15 15 15 15 14 14 14 14 14 13 13 13 13 13 13 13 12 12 12 12 12 12 12 12 12 12 12 12 12 12 11 11 11 11 11 11 11 10 10 10 10 10 10
15 14 14 14 14 14 14 13 13 13 13 13 13 13 13 13 12 13 12 12 12 12 12 12 12 12 12 12 11 11 11 11 11 11 11 11 11 10 10 10 10 10 9 9
14 14 14 14 14 13 13 13 13 13 13 13 13 13 13 12 12 12 12 12 12 12 12 12 12 11 11 11 11 11 11 11 11 11 11 10 10 10 10 10 10 9 9 9
14 14 14 13 13 13 13 13 13 13 12 12 13 13 12 12 12 12 12 12 12 12 12 12 11 11 11 11 11 11 11 11 10 10 10 10 10 10 10 9 9 9 9 9
13 13 13 13 13 13 13 13 13 13 12 12 12 12 12 12 12 12 12 12 12 11 11 11 11 11 11 11 11 11 11 10 10 10 10 10 10 9 9 9 9 8 8 8
Wind_Speed
4 4 1 1 2 1 3 6 7 6 6 6 6 7 6 6 6 6 5 5 5 4 3 4 4 5 6 5 4 5 5 4 4 3 3 2 3 3 2 2 3 2 2 2
2 2 2 3 3 1 2 2 5 6 2 3 3 5 6 6 7 7 6 5 5 5 4 4 5 5 6 6 5 4 5 4 3 3 2 2 2 3 3 2 1 1 2 2
2 4 2 2 2 1 2 2 6 6 5 6 6 6 6 7 7 6 6 5 5 5 4 4 4 4 6 7 5 4 4 4 4 3 2 2 2 2 2 2 2 1 2 2
1 3 1 6 3 3 4 2 2 5 8 9 8 5 4 6 7 5 5 5 4 4 3 2 2 2 3 5 5 5 4 4 4 3 3 2 2 2 2 1 2 2 2 2
3 2 3 4 2 2 3 1 1 6 7 7 7 7 3 3 4 5 5 5 4 3 3 2 2 2 3 4 4 3 3 3 3 3 3 3 2 2 2 1 1 1 2 2
3 3 4 6 4 1 5 1 2 5 8 7 7 3 2 2 3 5 4 4 4 4 5 4 3 3 4 4 4 3 3 3 3 4 4 3 3 2 1 1 1 1 1 1
3 3 5 4 3 2 3 6 4 5 7 7 5 5 5 4 4 5 6 5 5 6 5 3 3 4 4 3 3 3 2 2 2 3 3 3 3 2 2 2 1 1 2 1
3 3 6 3 2 3 5 3 5 5 6 6 6 7 7 5 4 6 6 6 5 5 3 2 3 4 4 3 2 1 2 1 1 2 2 2 3 2 2 2 2 2 1 1
5 5 3 1 2 0 2 4 4 5 6 8 8 7 6 5 5 5 6 5 4 5 4 3 2 3 3 1 1 2 2 1 1 1 2 2 3 2 2 2 2 2 1 0
2 1 2 4 4 4 3 3 4 6 6 8 7 7 5 4 4 5 4 5 5 5 4 2 2 3 2 1 2 3 2 1 1 2 1 2 2 2 2 2 2 2 2 1
1 0 3 3 2 2 3 4 6 7 6 7 8 7 5 4 4 4 4 4 5 5 4 2 1 1 1 2 2 2 2 2 1 1 1 1 1 1 2 2 4 4 3 3
4 4 2 2 0 3 4 4 5 7 6 6 7 7 6 5 3 3 4 4 4 3 3 2 1 0 1 1 2 3 2 1 1 1 1 1 2 2 4 2 2 3 4 4
3 2 2 1 2 3 4 5 6 6 6 5 4 6 6 4 3 4 4 4 4 3 2 2 2 1 1 0 1 2 2 2 1 1 1 1 2 2 1 3 4 2 2 2
4 5 4 2 2 2 5 6 7 6 4 4 4 4 5 4 4 4 4 3 3 3 2 3 2 1 2 0 1 1 1 1 1 1 2 2 2 2 3 2 1 1 2 1
2 3 5 4 3 3 5 7 8 6 5 4 5 5 5 5 4 3 2 3 4 3 2 2 2 2 2 1 1 1 1 1 1 1 1 2 2 2 2 2 2 1 1 2
3 4 5 5 3 3 6 7 7 5 4 5 5 5 5 4 4 3 3 3 4 3 2 2 2 2 2 1 2 1 0 1 1 1 1 1 1 2 2 2 2 1 1 1
5 4 5 5 4 4 5 6 6 5 4 5 5 5 5 5 4 3 2 2 3 3 3 3 3 2 1 2 2 1 1 1 2 1 1 1 1 2 2 2 2 2 2 2
5 5 6 7 6 6 5 6 6 6 5 5 6 6 5 4 4 3 3 2 3 1 0 2 2 2 1 1 2 1 1 1 1 2 2 2 2 2 2 2 2 2 2 1
5 6 5 6 6 6 6 6 5 6 6 6 6 5 4 3 3 3 3 3 3 1 2 2 2 2 1 1 2 2 2 2 1 1 1 2 1 1 2 2 2 2 2 2
6 7 7 6 6 7 6 6 6 6 5 6 5 4 3 2 3 3 3 2 3 4 3 2 3 2 2 2 2 1 1 1 1 1 1 1 1 1 1 2 2 2 2 2
7 6 7 7 6 6 6 6 6 5 4 4 5 4 3 2 2 3 3 1 3 3 3 3 3 2 2 2 2 1 1 1 1 1 2 2 2 1 1 1 1 2 2 2
6 6 7 7 7 5 4 4 5 4 4 3 3 3 3 2 2 1 2 3 4 4 3 3 2 3 2 2 1 1 1 1 1 1 1 2 2 2 2 1 1 1 2 2
6 6 6 6 5 4 4 4 3 3 3 3 3 3 3 3 3 3 2 3 2 3 3 2 3 3 2 2 1 1 1 2 1 1 1 1 2 2 2 2 2 2 2 1
5 5 5 5 5 5 3 1 1 2 2 2 2 3 3 2 1 2 2 3 3 3 2 3 3 2 2 1 1 1 1 1 1 1 1 1 1 1 1 2 1 1 1 1
5 5 5 5 4 2 2 1 1 1 2 1 1 2 2 3 3 2 2 3 4 4 2 2 3 2 2 1 1 1 1 1 1 1 1 1 1 1 1 1 1 1 1 1
4 3 3 3 2 2 1 2 1 2 2 1 1 2 1 1 2 2 2 2 3 4 3 2 3 2 1 1 2 2 2 1 1 1 1 2 2 2 1 1 1 1 1 1
3 2 2 1 0 1 2 2 2 2 2 3 2 2 1 1 1 2 3 3 3 3 2 2 2 2 2 2 2 2 2 1 1 2 2 2 2 2 1 1 1 1 1 1
Wind_Direction
209 224 152 37 280 218 163 175 173 194 183 197 191 164 153 141 138 127 125 126 134 146 151 137 125 142 152 150 157 163 155 161 182 185 171 170 175 186 205 227 216 204 186 188
327 312 63 20 347 105 136 139 147 138 186 205 155 123 124 126 131 142 152 155 150 145 141 142 141 145 152 158 168 160 164 176 178 168 165 174 177 186 190 200 215 187 178 172
281 309 57 337 283 151 139 159 159 178 192 144 127 132 148 148 136 141 149 155 154 152 150 156 160 150 156 163 162 167 176 176 173 166 166 184 180 158 185 205 204 205 196 182
119 42 208 246 261 112 105 64 139 144 149 151 149 150 149 141 136 141 141 139 149 151 144 147 142 134 141 153 158 166 170 175 172 168 174 180 173 179 203 204 200 202 198 200
118 152 260 282 280 133 113 322 147 137 144 134 117 88 73 106 132 151 157 151 138 137 141 129 109 103 110 123 135 141 160 182 185 177 176 177 186 202 206 193 205 212 192 191
131 152 219 244 272 161 98 268 248 145 150 147 126 125 200 144 115 120 111 110 115 109 95 91 91 104 115 130 134 155 192 201 192 175 170 178 194 199 191 174 196 183 143 175
161 194 251 258 278 83 159 228 211 168 158 153 158 166 160 130 107 114 105 98 104 105 98 106 109 106 115 137 167 196 192 178 174 176 179 178 181 185 165 156 128 98 99 70
156 184 247 280 81 164 208 174 152 148 141 128 122 122 125 120 114 106 101 95 98 105 99 97 101 112 115 139 179 155 138 137 169 181 164 149 146 154 150 145 126 110 96 41
182 204 251 78 103 130 120 124 134 139 136 126 124 126 125 129 127 116 111 103 101 111 96 64 71 98 125 150 119 107 113 140 146 126 128 131 139 148 146 140 141 134 127 97
78 13 55 64 69 61 83 106 117 126 133 133 134 137 136 138 122 116 111 106 98 99 94 67 49 66 89 92 107 101 100 95 113 121 116 112 130 153 157 164 158 154 149 159
79 241 39 37 69 83 86 91 110 112 120 130 137 141 137 127 127 132 121 113 113 117 129 137 108 59 58 65 83 91 95 87 86 125 129 127 116 138 163 191 184 174 182 178
221 233 177 220 145 93 100 101 121 116 110 117 128 132 125 124 136 133 129 122 116 121 136 141 117 336 351 57 91 109 106 95 133 161 147 144 133 55 28 52 94 124 143 154
187 181 156 192 83 87 122 120 119 117 121 119 117 126 126 130 141 138 131 128 138 149 150 135 143 218 282 43 90 122 149 167 186 182 157 161 159 150 111 24 38 64 119 145
152 129 110 109 109 103 112 109 105 101 100 105 108 113 118 121 126 130 140 153 145 132 138 137 140 230 272 194 99 136 157 171 183 197 188 178 180 170 159 150 119 343 347 347
141 141 150 140 127 110 105 107 105 108 112 106 110 116 116 123 133 135 138 135 122 116 134 141 154 241 259 170 149 166 158 188 183 179 182 181 177 164 157 156 156 147 42 359
122 107 111 114 121 122 117 120 124 135 134 126 127 131 133 135 134 129 129 134 134 148 170 173 201 235 226 166 159 169 181 158 144 154 154 149 159 158 166 178 184 187 203 217
137 138 136 137 136 126 123 129 138 153 149 141 143 138 129 124 119 119 138 149 149 165 178 186 215 220 188 161 158 185 187 174 138 136 149 169 174 171 175 180 191 204 220 211
162 159 154 145 138 124 117 124 134 141 145 141 133 129 131 137 148 164 169 140 114 93 246 202 182 162 161 168 168 179 168 165 190 189 184 194 200 188 183 192 209 214 228 220
121 124 128 125 126 127 128 134 140 138 134 130 125 127 134 142 149 153 150 135 135 172 254 228 156 137 165 190 155 166 170 170 187 206 192 203 202 200 193 198 209 216 209 201
110 111 117 115 115 121 123 121 116 115 122 125 122 120 121 133 138 131 134 159 200 212 210 189 163 170 188 188 139 150 156 159 167 162 145 148 169 204 200 193 193 199 206 212
118 113 115 116 112 109 116 117 113 113 114 123 130 139 142 150 145 133 134 197 255 223 189 179 186 198 196 185 151 157 159 160 164 170 179 177 172 184 189 193 195 194 196 204
112 108 109 110 111 107 103 105 109 109 104 104 118 127 132 150 155 150 193 204 218 202 183 190 202 202 198 177 167 167 179 184 179 178 190 188 181 185 192 193 190 187 185 184
106 106 109 109 111 112 102 103 108 111 118 129 140 150 162 180 182 178 228 241 207 188 179 193 198 185 169 157 160 169 171 167 168 163 170 178 178 185 189 186 189 185 181 179
102 101 105 108 102 99 96 95 106 119 133 148 162 169 170 178 236 234 204 187 174 163 173 191 184 165 151 166 173 169 156 143 140 146 149 164 166 168 173 166 164 165 171 169
116 112 106 103 104 119 141 126 94 98 111 137 198 212 204 192 199 209 182 174 167 153 153 176 168 176 182 184 161 145 144 150 143 139 135 140 147 139 123 122 142 152 159 175
127 131 138 150 165 178 175 147 155 185 183 201 246 249 245 224 172 162 160 167 162 159 165 177 173 172 187 177 159 148 137 134 123 110 127 135 138 140 134 131 148 157 166 159
110 111 106 85 150 190 182 180 192 212 206 196 218 234 219 196 165 153 145 143 147 158 167 164 162 175 182 165 154 143 130 125 120 116 111 114 120 128 123 131 150 164 163 144
Height
1471 1468 1467 1470 1469 1468 1475 1482 1491 1489 1487 1484 1481 1481 1482 1484 1485 1486 1488 1490 1492 1494 1494 1494 1496 1497 1499 1499 1501 1502 1503 1503 1504 1504 1504 1504 1505 1505 1505 1505 1504 1505 1505 1505
1473 1466 1467 1470 1468 1467 1470 1474 1478 1481 1484 1478 1479 1481 1482 1484 1485 1487 1488 1490 1491 1493 1494 1494 1495 1495 1496 1498 1499 1500 1500 1501 1502 1502 1503 1502 1502 1503 1502 1502 1502 1502 1502 1502
1483 1472 1471 1482 1473 1469 1471 1470 1474 1481 1480 1478 1480 1482 1483 1483 1485 1486 1488 1489 1490 1491 1492 1493 1494 1494 1495 1496 1497 1498 1498 1499 1499 1500 1500 1501 1501 1500 1500 1500 1500 1500 1500 1500
1486 1482 1494 1481 1465 1464 1467 1469 1468 1469 1471 1474 1477 1480 1482 1483 1484 1486 1487 1488 1490 1491 1492 1492 1493 1493 1494 1495 1496 1497 1497 1497 1497 1498 1498 1499 1499 1498 1498 1498 1498 1498 1498 1497
1490 1494 1488 1474 1465 1465 1470 1474 1468 1469 1471 1473 1476 1478 1482 1484 1485 1486 1487 1488 1489 1490 1490 1491 1491 1492 1492 1493 1494 1495 1494 1494 1495 1496 1496 1497 1497 1497 1496 1496 1496 1496 1495 1495
1487 1491 1493 1477 1462 1460 1466 1478 1469 1468 1470 1471 1474 1482 1484 1483 1484 1486 1487 1488 1489 1489 1490 1490 1491 1491 1491 1492 1492 1492 1493 1494 1494 1495 1495 1495 1495 1495 1495 1495 1494 1494 1494 1493
1485 1488 1481 1466 1461 1461 1478 1477 1468 1467 1468 1470 1472 1476 1479 1481 1483 1484 1486 1487 1488 1488 1488 1489 1490 1491 1490 1490 1490 1491 1492 1493 1493 1493 1493 1493 1493 1494 1494 1494 1493 1493 1492 1491
1484 1488 1483 1462 1461 1466 1467 1463 1465 1466 1467 1469 1472 1475 1477 1480 1481 1483 1483 1485 1486 1487 1488 1489 1490 1489 1489 1489 1490 1491 1491 1491 1491 1491 1491 1491 1492 1492 1493 1492 1492 1491 1491 1490
1473 1475 1465 1462 1462 1463 1461 1462 1463 1465 1467 1469 1472 1475 1477 1479 1481 1482 1482 1483 1485 1486 1487 1488 1488 1488 1488 1488 1489 1490 1490 1490 1490 1490 1490 1490 1490 1491 1491 1491 1490 1489 1489 1489
1468 1466 1463 1463 1463 1463 1463 1463 1464 1465 1468 1469 1472 1474 1477 1478 1480 1481 1482 1482 1484 1485 1486 1487 1487 1487 1488 1488 1488 1489 1488 1489 1489 1489 1489 1489 1489 1489 1489 1488 1488 1488 1488 1487
1467 1465 1463 1464 1464 1464 1464 1465 1466 1468 1469 1470 1472 1474 1476 1477 1479 1481 1481 1483 1484 1485 1486 1486 1487 1487 1487 1486 1487 1487 1486 1487 1487 1487 1487 1487 1487 1488 1487 1487 1487 1487 1486 1486
1467 1464 1464 1465 1465 1465 1466 1466 1467 1467 1469 1471 1471 1473 1475 1476 1479 1480 1481 1482 1484 1484 1485 1484 1485 1485 1485 1485 1485 1485 1485 1485 1486 1486 1486 1486 1486 1486 1486 1486 1486 1486 1486 1485
1460 1461 1463 1464 1464 1465 1465 1466 1467 1467 1469 1471 1472 1473 1474 1476 1479 1480 1481 1481 1483 1483 1484 1483 1484 1484 1484 1484 1484 1484 1484 1484 1484 1484 1484 1484 1484 1484 1484 1485 1485 1484 1484 1483
1459 1460 1462 1463 1464 1465 1465 1465 1466 1468 1470 1471 1472 1474 1475 1476 1478 1479 1480 1481 1481 1482 1482 1482 1483 1483 1483 1483 1483 1483 1483 1483 1482 1482 1482 1482 1482 1482 1482 1482 1482 1482 1483 1482
1458 1459 1460 1461 1463 1464 1464 1465 1466 1468 1470 1472 1473 1474 1475 1476 1478 1478 1479 1480 1480 1480 1481 1481 1482 1482 1482 1482 1481 1481 1481 1480 1480 1480 1480 1480 1481 1481 1480 1480 1481 1481 1481 1480
1457 1458 1459 1460 1462 1462 1463 1464 1466 1468 1469 1471 1472 1474 1475 1476 1477 1477 1478 1478 1478 1478 1479 1480 1480 1480 1480 1480 1480 1479 1479 1479 1479 1479 1479 1479 1479 1479 1479 1479 1479 1478 1478 1478
1455 1457 1458 1460 1461 1461 1462 1463 1464 1466 1469 1470 1471 1473 1474 1475 1475 1475 1476 1476 1477 1477 1478 1478 1478 1479 1479 1478 1478 1477 1477 1477 1477 1477 1477 1477 1477 1477 1477 1477 1477 1477 1477 1477
1455 1456 1457 1458 1459 1460 1462 1463 1464 1466 1468 1469 1470 1471 1472 1472 1473 1473 1474 1475 1475 1476 1476 1476 1477 1477 1477 1476 1476 1475 1474 1474 1475 1475 1475 1476 1476 1476 1476 1476 1475 1475 1475 1475
1453 1455 1456 1457 1459 1460 1461 1462 1463 1465 1467 1468 1469 1469 1470 1471 1471 1472 1472 1473 1473 1473 1474 1475 1475 1475 1475 1474 1474 1474 1473 1473 1473 1474 1474 1474 1474 1474 1474 1474 1474 1474 1473 1473
1454 1455 1456 1457 1459 1460 1461 1462 1463 1464 1465 1467 1467 1468 1469 1469 1469 1470 1470 1471 1472 1472 1473 1473 1473 1473 1473 1473 1472 1472 1472 1471 1471 1472 1472 1472 1473 1473 1473 1473 1472 1472 1472 1471
1454 1455 1456 1457 1459 1460 1461 1462 1462 1463 1465 1466 1466 1467 1467 1468 1469 1469 1469 1469 1470 1471 1471 1472 1472 1471 1471 1471 1471 1471 1470 1470 1470 1470 1471 1471 1471 1471 1471 1471 1471 1471 1470 1469
1453 1455 1456 1457 1458 1460 1461 1462 1463 1464 1465 1465 1465 1466 1467 1467 1468 1468 1468 1469 1469 1470 1470 1470 1470 1470 1470 1470 1470 1470 1469 1469 1469 1469 1470 1470 1470 1469 1469 1469 1469 1469 1468 1467
1454 1455 1456 1457 1459 1460 1461 1462 1463 1464 1464 1465 1466 1466 1466 1467 1467 1467 1467 1468 1468 1468 1468 1468 1469 1469 1469 1469 1469 1469 1469 1468 1468 1469 1469 1468 1468 1468 1468 1468 1467 1467 1466 1465
1454 1456 1457 1458 1459 1460 1461 1462 1463 1464 1464 1465 1466 1466 1466 1466 1466 1466 1466 1467 1467 1467 1467 1467 1467 1468 1468 1468 1467 1467 1467 1467 1467 1467 1467 1467 1467 1467 1466 1466 1465 1465 1464 1463
1455 1456 1457 1458 1459 1460 1461 1461 1462 1462 1463 1464 1465 1465 1465 1465 1465 1465 1465 1465 1466 1466 1466 1466 1466 1466 1466 1466 1466 1466 1466 1466 1466 1465 1465 1465 1465 1465 1464 1464 1463 1463 1462 1461
1455 1456 1458 1459 1460 1460 1461 1461 1461 1462 1462 1463 1463 1463 1463 1463 1463 1463 1463 1464 1464 1464 1464 1465 1465 1465 1465 1465 1464 1464 1464 1464 1464 1464 1464 1464 1463 1463 1462 1462 1461 1461 1460 1459
1455 1456 1457 1458 1459 1460 1460 1460 1461 1461 1461 1461 1461 1462 1462 1462 1462 1462 1462 1462 1462 1463 1463 1463 1463 1464 1464 1463 1463 1463 1463 1463 1463 1463 1463 1462 1462 1461 1461 1460 1459 1458 1457 1456